Weather History for KOJC - December, 2013

Change the Weather History Date:

Monday, December 9, 2013

  Actual Average Record
Temperature  
Mean Temperature 15 °F 34 °F  
Max Temperature 20 °F 42 °F 66 °F (1990)
Min Temperature 9 °F 25 °F -4 °F (2005)
Degree Days  
Heating Degree Days 50 31  
Month to date heating degree days 337 268  
Since 1 July heating degree days 1397 1223  
Cooling Degree Days 0 0  
Month to date cooling degree days 0 0  
Year to date cooling degree days 1360 1349  
Moisture  
Dew Point 5 °F    
Average Humidity 74    
Maximum Humidity 92    
Minimum Humidity 55    
Precipitation  
Precipitation 0.00 in 0.04 in 1.01 in (2003)
Month to date precipitation T 0.47  
Year to date precipitation 36.19 38.87  
Sea Level Pressure  
Sea Level Pressure 30.32 in    
Wind  
Wind Speed 7 mph (NW)    
Max Wind Speed 15 mph    
Max Gust Speed 19 mph    
Visibility 9 miles    
Events      
T = Trace of Precipitation, MM = Missing Value Source: NWS Daily Summary

Daily Weather History Graph

Daily Weather History Graph

Search for Another Location

Airport or City:

Trip Planner

Search our weather history database for the weather conditions in past years. The results will help you decide how hot, cold, wet, or windy it might be!

Date:

Astronomy

Dec. 09, 2013 Rise Set
Actual Time 7:25 AM CST 4:56 PM CST
Civil Twilight 6:56 AM CST 5:26 PM CST
Nautical Twilight 6:22 AM CST 6:00 PM CST
Astronomical Twilight 5:50 AM CST 6:32 PM CST
Moon 12:22 PM CST (12/9) No Moon Set
Length of Visible Light 10h 30m
Length of Day
9h 31m
Waxing Crescent, 51% of the Moon is Illuminated
Dec 9
Waxing Crescent
Dec 17
Full
Dec 25
Last Quarter
Jan 1
New
Jan 7
First Quarter

Hourly Weather History & Observations

Time (CST) Temp. Windchill Dew Point Humidity Pressure Visibility Wind Dir Wind Speed Gust Speed Precip Events Conditions
12:07 AM 19.0 °F 7.5 °F 16.0 °F 88% 30.16 in 8.0 mi NW 10.4 mph - N/A   Overcast
12:32 AM 18.0 °F 6.9 °F 14.0 °F 84% 30.16 in 9.0 mi NW 9.2 mph - N/A   Overcast
12:53 AM 17.1 °F 6.6 °F 12.9 °F 84% 30.21 in 9.0 mi NW 8.1 mph - N/A   Partly Cloudy
1:20 AM 17.1 °F 8.7 °F 12.9 °F 84% 30.18 in 8.0 mi NW 5.8 mph - N/A   Mostly Cloudy
1:53 AM 16.0 °F 4.4 °F 12.0 °F 84% 30.24 in 8.0 mi NW 9.2 mph - N/A   Mostly Cloudy
2:01 AM 15.1 °F 3.3 °F 12.0 °F 88% 30.19 in 8.0 mi NW 9.2 mph - N/A   Scattered Clouds
2:53 AM 14.0 °F 1.2 °F 10.9 °F 88% 30.23 in 7.0 mi NNW 10.4 mph - N/A   Clear
3:53 AM 12.9 °F 3.8 °F 9.0 °F 84% 30.26 in 8.0 mi NNW 5.8 mph - N/A   Clear
4:53 AM 10.9 °F 1.4 °F 8.1 °F 88% 30.26 in 8.0 mi NNW 5.8 mph - N/A   Clear
5:53 AM 10.9 °F 2.9 °F 8.1 °F 88% 30.27 in 8.0 mi NW 4.6 mph - N/A   Clear
6:53 AM 10.9 °F -0.8 °F 8.1 °F 88% 30.31 in 8.0 mi NW 8.1 mph - N/A   Clear
7:53 AM 10.9 °F -2.6 °F 7.0 °F 84% 30.33 in 8.0 mi NNW 10.4 mph - N/A   Clear
8:41 AM 10.0 °F -3.7 °F 6.1 °F 84% 30.32 in 6.0 mi WNW 10.4 mph - N/A   Mostly Cloudy
8:53 AM 10.0 °F -3.7 °F 5.0 °F 80% 30.39 in 9.0 mi NNW 10.4 mph - N/A   Mostly Cloudy
9:53 AM 10.0 °F -1.9 °F 3.9 °F 76% 30.43 in 9.0 mi WNW 8.1 mph - N/A   Mostly Cloudy
10:00 AM 10.0 °F -0.9 °F 3.0 °F 73% 30.38 in 10.0 mi WNW 6.9 mph - N/A   Clear
10:53 AM 10.0 °F -2.9 °F 1.0 °F 67% 30.44 in 10.0 mi NW 9.2 mph - N/A   Clear
11:53 AM 10.0 °F -4.5 °F 1.0 °F 67% 30.43 in 10.0 mi NNW 11.5 mph - N/A   Scattered Clouds
12:53 PM 10.9 °F -0.8 °F 1.9 °F 67% 30.40 in 10.0 mi NNW 8.1 mph - N/A   Scattered Clouds
1:53 PM 12.9 °F 0.7 °F 1.9 °F 62% 30.38 in 10.0 mi North 9.2 mph - N/A   Clear
2:53 PM 14.0 °F 5.1 °F 1.0 °F 56% 30.36 in 10.0 mi North 5.8 mph - N/A   Clear
3:53 PM 14.0 °F 5.1 °F -0.0 °F 54% 30.34 in 10.0 mi North 5.8 mph - N/A   Clear
4:53 PM 14.0 °F 8.2 °F -0.0 °F 54% 30.35 in 10.0 mi NNW 3.5 mph - N/A   Overcast
5:53 PM 12.9 °F 6.9 °F -0.0 °F 56% 30.36 in 10.0 mi WNW 3.5 mph - N/A   Partly Cloudy
6:53 PM 12.0 °F 5.9 °F 1.0 °F 61% 30.35 in 10.0 mi WNW 3.5 mph - N/A   Clear
7:53 PM 10.9 °F 4.7 °F 1.0 °F 64% 30.35 in 10.0 mi West 3.5 mph - N/A   Clear
8:53 PM 10.9 °F 2.9 °F 1.0 °F 64% 30.36 in 10.0 mi WSW 4.6 mph - N/A   Clear
9:53 PM 10.0 °F 0.4 °F 1.0 °F 67% 30.36 in 10.0 mi SW 5.8 mph - N/A   Clear
10:53 PM 10.0 °F -1.9 °F 1.9 °F 70% 30.36 in 10.0 mi WSW 8.1 mph - N/A   Clear
11:53 PM 10.9 °F -1.8 °F 1.9 °F 67% 30.34 in 10.0 mi WSW 9.2 mph - N/A   Clear